IRNSS-R1A

operational
NORAD ID: 39199 Int'l Des: 2013-034 Owner: ISRO Country: IN
HEOCIRCULARGSO

Über IRNSS-R1A

Beschreibung wird geladen...

Live-Position

3D-Globus wird geladen...

Nächste Überflüge

Höhenverlauf

Altitude vs Time

uPlot chart will show altitude changes over time

Zweizeiliger Elementsatz

1 39199U 13034A 26061.09962485 .00000078 00000-0 00000+0 0 9994
2 39199 35.4841 65.3995 0017846 190.7045 354.6664 1.00269376 46296
Epoch: 2. März 2026 • Age: 38 hours

Aktueller Status

Höhe 35861.0 km
Geschwindigkeit 3.07 km/s
Subsatellitenpunkt 1.87°N, 54.39°E
Startdatum 1. Juli 2013
Alter 12.6 years
Typ other

Technische Details

Klassifizierung Payload
Masse 1425.00 kg
Trockenmasse 614.00 kg
Gesamtmasse 1425.00 kg
Länge 1.50 m
Durchmesser 1.50 m
Spannweite 10.00 m
Form Box + 2 Pan
Hersteller ISAC
Bus-Typ I1K
Phasenstatus In Orbit
Besitzer/Staat ISRO/IN

Große Konstellationen

Loading constellations...